ARE4353 SKRG-SKPE

Flight info

Callsign ARE4353
Flight time 0h 24m
Altitude 20000
Route ISVO2B ISVON W3 MATRO MATRO1G
Aircraft A320/M-SDE3FGHIRWY/LB1

Departure

Time 2026-04-25 17:00
Airport Jose Maria Córdova International Airport (SKRG)

Arrival

Time 2026-04-25 17:25
Airport Matecaña International Airport (SKPE)
Time Latitude Longitude Altitude Speed Heading
2026-04-25 16:50 6.17146 -75.42697 7018 ft 0 kts 269°
2026-04-25 16:52 6.17146 -75.42688 7018 ft 3 kts 269°
2026-04-25 16:53 6.17146 -75.42646 7018 ft 3 kts 269°
2026-04-25 16:53 6.17144 -75.42621 7018 ft 3 kts 338°
2026-04-25 16:53 6.17128 -75.42618 7019 ft 0 kts
2026-04-25 16:55 6.17130 -75.42618 7020 ft 1 kts
2026-04-25 16:56 6.17157 -75.42618 7021 ft 7 kts 360°
2026-04-25 16:56 6.17223 -75.42619 7019 ft 12 kts 359°
2026-04-25 16:56 6.17324 -75.42620 7018 ft 15 kts 359°
2026-04-25 16:56 6.17427 -75.42592 7020 ft 16 kts 37°
2026-04-25 16:57 6.17516 -75.42522 7020 ft 15 kts 33°
2026-04-25 16:57 6.17546 -75.42504 7023 ft 14 kts 26°
2026-04-25 16:57 6.17703 -75.42491 7027 ft 13 kts 360°
2026-04-25 16:57 6.17775 -75.42490 7025 ft 13 kts
2026-04-25 16:58 6.17868 -75.42492 7028 ft 11 kts 358°
2026-04-25 16:58 6.17921 -75.42492 7031 ft 10 kts 360°
2026-04-25 16:58 6.17996 -75.42487 7030 ft 10 kts 24°
2026-04-25 16:58 6.18018 -75.42414 7034 ft 12 kts 89°
2026-04-25 16:59 6.17995 -75.42332 7033 ft 12 kts 148°
2026-04-25 16:59 6.17954 -75.42322 7031 ft 1 kts 182°
2026-04-25 16:59 6.17800 -75.42321 7027 ft 55 kts 179°
2026-04-25 16:59 6.17177 -75.42314 7014 ft 115 kts 180°
2026-04-25 17:00 6.16527 -75.42310 6982 ft 149 kts 179°
2026-04-25 17:00 6.15312 -75.42288 7094 ft 177 kts 178°
2026-04-25 17:00 6.14056 -75.42254 7703 ft 178 kts 178°
2026-04-25 17:00 6.12687 -75.42233 8303 ft 180 kts 181°
2026-04-25 17:01 6.11395 -75.42208 8813 ft 180 kts 181°
2026-04-25 17:01 6.10017 -75.42212 9120 ft 194 kts 183°
2026-04-25 17:01 6.08534 -75.42236 9397 ft 210 kts 183°
2026-04-25 17:01 6.07537 -75.42259 9669 ft 214 kts 187°
2026-04-25 17:02 6.06073 -75.42715 10209 ft 213 kts 213°
2026-04-25 17:02 6.04884 -75.43673 10515 ft 225 kts 222°
2026-04-25 17:02 6.03646 -75.44754 10753 ft 241 kts 222°
2026-04-25 17:02 6.02768 -75.45514 10875 ft 253 kts 221°
2026-04-25 17:03 6.00916 -75.47109 11246 ft 277 kts 221°
2026-04-25 17:03 5.99349 -75.48452 11587 ft 294 kts 221°
2026-04-25 17:03 5.97712 -75.49847 11924 ft 311 kts 221°
2026-04-25 17:03 5.96014 -75.51293 12240 ft 328 kts 221°
2026-04-25 17:04 5.94128 -75.52781 12588 ft 343 kts 210°
2026-04-25 17:04 5.91891 -75.53685 13165 ft 350 kts 197°
2026-04-25 17:04 5.89466 -75.54234 13821 ft 355 kts 191°
2026-04-25 17:04 5.86946 -75.54592 14397 ft 359 kts 188°
2026-04-25 17:05 5.84453 -75.54874 14927 ft 362 kts 187°
2026-04-25 17:05 5.79400 -75.55498 16008 ft 369 kts 189°
2026-04-25 17:05 5.76848 -75.55871 16544 ft 372 kts 190°
2026-04-25 17:06 5.74248 -75.56284 17073 ft 375 kts 191°
2026-04-25 17:06 5.71628 -75.56721 17606 ft 379 kts 191°
2026-04-25 17:06 5.68982 -75.57172 18129 ft 382 kts 191°
2026-04-25 17:06 5.66308 -75.57625 18614 ft 386 kts 191°
2026-04-25 17:07 5.63646 -75.58069 19064 ft 389 kts 191°
2026-04-25 17:07 5.60923 -75.58516 19528 ft 393 kts 191°
2026-04-25 17:07 5.58182 -75.58965 19947 ft 395 kts 191°
2026-04-25 17:07 5.55471 -75.59412 20081 ft 395 kts 191°
2026-04-25 17:08 5.53640 -75.59713 20109 ft 393 kts 191°
2026-04-25 17:08 5.50910 -75.60162 20123 ft 393 kts 191°
2026-04-25 17:08 5.48210 -75.60606 20127 ft 393 kts 191°
2026-04-25 17:08 5.45469 -75.61057 19817 ft 395 kts 190°
2026-04-25 17:09 5.42695 -75.61513 19212 ft 388 kts 191°
2026-04-25 17:09 5.40088 -75.62023 18638 ft 375 kts 198°
2026-04-25 17:09 5.37660 -75.62844 18135 ft 361 kts 200°
2026-04-25 17:09 5.35333 -75.63656 17678 ft 347 kts 200°
2026-04-25 17:10 5.33093 -75.64435 17258 ft 334 kts 200°
2026-04-25 17:10 5.30949 -75.65181 16867 ft 322 kts 200°
2026-04-25 17:10 5.28808 -75.65926 16471 ft 320 kts 200°
2026-04-25 17:10 5.26712 -75.66657 16068 ft 318 kts 200°
2026-04-25 17:11 5.24570 -75.67404 15561 ft 316 kts 200°
2026-04-25 17:11 5.22379 -75.68167 15143 ft 317 kts 200°
2026-04-25 17:11 5.20181 -75.68933 14732 ft 317 kts 200°
2026-04-25 17:11 5.18060 -75.69673 14338 ft 317 kts 200°
2026-04-25 17:12 5.15969 -75.70403 14072 ft 313 kts 200°
2026-04-25 17:12 5.14558 -75.70894 13893 ft 309 kts 200°
2026-04-25 17:12 5.12432 -75.71710 13607 ft 306 kts 204°
2026-04-25 17:12 5.10461 -75.72569 13369 ft 304 kts 205°
2026-04-25 17:13 5.08539 -75.73448 13115 ft 303 kts 205°
2026-04-25 17:13 5.07272 -75.74034 12872 ft 303 kts 205°
2026-04-25 17:13 5.04689 -75.75226 12541 ft 302 kts 205°
2026-04-25 17:13 5.02783 -75.76095 12294 ft 300 kts 205°
2026-04-25 17:14 5.00829 -75.76974 12049 ft 299 kts 205°
2026-04-25 17:14 4.98930 -75.77820 11948 ft 298 kts 205°
2026-04-25 17:14 4.97026 -75.78667 12004 ft 300 kts 205°
2026-04-25 17:14 4.95120 -75.79515 12007 ft 299 kts 205°
2026-04-25 17:15 4.93311 -75.80547 11919 ft 299 kts 216°
2026-04-25 17:15 4.91589 -75.81751 11675 ft 297 kts 216°
2026-04-25 17:15 4.89902 -75.82934 11436 ft 293 kts 216°
2026-04-25 17:15 4.88247 -75.84089 11205 ft 287 kts 216°
2026-04-25 17:16 4.86773 -75.85383 10968 ft 279 kts 232°
2026-04-25 17:16 4.85841 -75.87044 10911 ft 261 kts 251°
2026-04-25 17:16 4.85301 -75.88727 10931 ft 249 kts 252°
2026-04-25 17:16 4.84767 -75.90379 10932 ft 240 kts 252°
2026-04-25 17:17 4.84251 -75.91961 10932 ft 227 kts 252°
2026-04-25 17:17 4.83751 -75.93493 10773 ft 221 kts 252°
2026-04-25 17:17 4.83272 -75.94963 10533 ft 213 kts 252°
2026-04-25 17:17 4.82796 -75.96433 10288 ft 207 kts 252°
2026-04-25 17:18 4.82453 -75.97359 10133 ft 204 kts 242°
2026-04-25 17:18 4.81520 -75.98429 9922 ft 197 kts 215°
2026-04-25 17:18 4.80254 -75.98933 9636 ft 194 kts 189°
2026-04-25 17:18 4.78902 -75.98819 9313 ft 194 kts 163°
2026-04-25 17:19 4.77610 -75.98392 8986 ft 191 kts 163°
2026-04-25 17:19 4.76343 -75.97970 8670 ft 188 kts 159°
2026-04-25 17:19 4.75284 -75.97232 8359 ft 186 kts 132°
2026-04-25 17:19 4.74649 -75.96115 8066 ft 185 kts 106°
2026-04-25 17:20 4.74555 -75.94856 7929 ft 173 kts 78°
2026-04-25 17:20 4.74880 -75.93746 7945 ft 167 kts 72°
2026-04-25 17:20 4.75252 -75.92568 7763 ft 166 kts 72°
2026-04-25 17:20 4.75603 -75.91472 7572 ft 165 kts 72°
2026-04-25 17:21 4.75956 -75.90378 7365 ft 164 kts 72°
2026-04-25 17:21 4.76312 -75.89277 7169 ft 163 kts 72°
2026-04-25 17:21 4.76661 -75.88196 6967 ft 163 kts 72°
2026-04-25 17:21 4.77025 -75.87074 6761 ft 163 kts 72°
2026-04-25 17:22 4.77374 -75.85996 6558 ft 162 kts 72°
2026-04-25 17:22 4.77492 -75.85631 6494 ft 162 kts 72°
2026-04-25 17:22 4.78077 -75.83824 6220 ft 161 kts 72°
2026-04-25 17:22 4.78425 -75.82747 6011 ft 160 kts 72°
2026-04-25 17:23 4.78772 -75.81676 5806 ft 159 kts 72°
2026-04-25 17:23 4.79117 -75.80610 5602 ft 158 kts 72°
2026-04-25 17:23 4.79460 -75.79550 5393 ft 158 kts 72°
2026-04-25 17:23 4.79694 -75.78829 5232 ft 158 kts 72°
2026-04-25 17:24 4.80042 -75.77752 4997 ft 158 kts 71°
2026-04-25 17:24 4.80382 -75.76702 4778 ft 159 kts 71°
2026-04-25 17:24 4.80721 -75.75650 4608 ft 159 kts 71°
2026-04-25 17:24 4.81053 -75.74609 4363 ft 154 kts 71°
2026-04-25 17:25 4.81324 -75.73780 4427 ft 84 kts 72°
2026-04-25 17:25 4.81410 -75.73498 4429 ft 21 kts 77°
2026-04-25 17:25 4.81479 -75.73474 4429 ft 5 kts 342°
2026-04-25 17:25 4.81504 -75.73488 4429 ft 3 kts 313°
2026-04-25 17:26 4.81508 -75.73545 4428 ft 9 kts 257°
2026-04-25 17:26 4.81493 -75.73584 4428 ft 9 kts 248°
2026-04-25 17:26 4.81471 -75.73647 4430 ft 9 kts 252°
2026-04-25 17:26 4.81459 -75.73704 4427 ft 5 kts 291°
2026-04-25 17:27 4.81486 -75.73715 4427 ft 5 kts 342°
2026-04-25 17:27 4.81503 -75.73721 4426 ft 0 kts 342°